| time (UTC) | temp F | wind direction | speed MPH | gust MPH | rain 1hr in | rain 24hr in | rain mn in | humidity % | barometer mb |
| 20260506061524 | 64 | 199 | 2.0 | 8.0 | 0.00 | 0.00 | 0.00 | 76 | 1013.8 |
| 20260506044528 | 63 | 234 | 0.0 | 2.0 | 0.00 | 0.00 | 0.00 | 72 | 1014.3 |
| 20260506043003 | 64 | 207 | 0.0 | 1.0 | 0.00 | 0.00 | 0.00 | 70 | 1014.2 |
| 20260506041502 | 65 | 207 | 0.0 | 1.0 | 0.00 | 0.00 | 0.00 | 68 | 1013.8 |
| 20260506040003 | 65 | 207 | 0.0 | 2.0 | 0.00 | 0.00 | 0.00 | 67 | 1013.9 |
| 20260506034510 | 66 | 187 | 0.0 | 2.0 | 0.00 | 0.00 | 0.00 | 65 | 1013.8 |
| 20260506033005 | 67 | 198 | 0.0 | 3.0 | 0.00 | 0.00 | 0.00 | 64 | 1013.8 |
| 20260506031506 | 67 | 271 | 0.0 | 3.0 | 0.00 | 0.00 | 0.00 | 64 | 1013.9 |
| 20260506030007 | 67 | 209 | 0.0 | 3.0 | 0.00 | 0.00 | 0.00 | 65 | 1014.1 |
| 20260506024510 | 67 | 206 | 0.0 | 4.0 | 0.00 | 0.00 | 0.00 | 67 | 1014.1 |
| 20260506023011 | 67 | 190 | 0.0 | 1.0 | 0.00 | 0.00 | 0.00 | 67 | 1013.7 |
| 20260506021506 | 68 | 168 | 0.0 | 1.0 | 0.00 | 0.00 | 0.00 | 65 | 1013.3 |
| 20260506020006 | 68 | 168 | 0.0 | 1.0 | 0.00 | 0.00 | 0.00 | 63 | 1013.3 |
| 20260506014504 | 69 | 192 | 0.0 | 1.0 | 0.00 | 0.00 | 0.00 | 63 | 1013.5 |
| 20260506013008 | 70 | 192 | 0.0 | 1.0 | 0.00 | 0.00 | 0.00 | 63 | 1013.6 |
| 20260506011510 | 70 | 192 | 0.0 | 1.0 | 0.00 | 0.00 | 0.00 | 62 | 1013.5 |
| 20260506010011 | 71 | 192 | 0.0 | 0.0 | 0.00 | 0.00 | 0.00 | 58 | 1013.5 |
| 20260506004512 | 72 | 192 | 0.0 | 1.0 | 0.00 | 0.00 | 0.00 | 56 | 1013.4 |
| 20260506003005 | 73 | 205 | 0.0 | 2.0 | 0.00 | 0.00 | 0.00 | 52 | 1013.4 |
| 20260506001506 | 73 | 209 | 0.0 | 3.0 | 0.00 | 0.00 | 0.00 | 51 | 1013.4 |
| 20260506000018 | 74 | 118 | 0.0 | 4.0 | 0.00 | 0.00 | 0.00 | 50 | 1013.4 |
| 20260505234512 | 75 | 182 | 1.0 | 5.0 | 0.00 | 0.00 | 0.00 | 49 | 1013.4 |
| 20260505233018 | 76 | 157 | 0.0 | 3.0 | 0.00 | 0.00 | 0.00 | 47 | 1013.1 |
| 20260505231506 | 77 | 212 | 0.0 | 8.0 | 0.00 | 0.00 | 0.00 | 45 | 1013.2 |
| 20260505230032 | 78 | 147 | 1.0 | 6.0 | 0.00 | 0.00 | 0.00 | 43 | 1013.2 |
| 20260505224516 | 78 | 227 | 3.0 | 9.0 | 0.00 | 0.00 | 0.00 | 43 | 1013.3 |
| 20260505223016 | 78 | 241 | 2.0 | 10.0 | 0.00 | 0.00 | 0.00 | 41 | 1013.1 |
| 20260505221516 | 79 | 338 | 1.0 | 10.0 | 0.00 | 0.00 | 0.00 | 41 | 1013.3 |
| 20260505220007 | 79 | 102 | 2.0 | 10.0 | 0.00 | 0.00 | 0.00 | 41 | 1013.3 |
| 20260505214514 | 80 | 331 | 2.0 | 13.0 | 0.00 | 0.00 | 0.00 | 40 | 1013.4 |
| 20260505213015 | 80 | 163 | 2.0 | 8.0 | 0.00 | 0.00 | 0.00 | 42 | 1013.5 |
| 20260505211518 | 80 | 126 | 3.0 | 8.0 | 0.00 | 0.00 | 0.00 | 40 | 1013.6 |
| 20260505210020 | 80 | 210 | 4.0 | 13.0 | 0.00 | 0.00 | 0.00 | 39 | 1013.6 |
| 20260505204522 | 80 | 186 | 2.0 | 6.0 | 0.00 | 0.00 | 0.00 | 42 | 1013.7 |
| 20260505203015 | 79 | 132 | 3.0 | 8.0 | 0.00 | 0.00 | 0.00 | 42 | 1014.0 |
| 20260505201521 | 79 | 168 | 2.0 | 7.0 | 0.00 | 0.00 | 0.00 | 39 | 1014.0 |
| 20260505200030 | 79 | 63 | 1.0 | 9.0 | 0.00 | 0.00 | 0.00 | 42 | 1014.3 |
| 20260505194523 | 81 | 314 | 1.0 | 9.0 | 0.00 | 0.00 | 0.00 | 37 | 1014.5 |
| 20260505193011 | 81 | 199 | 4.0 | 13.0 | 0.00 | 0.00 | 0.00 | 37 | 1015.0 |
| 20260505191515 | 80 | 234 | 2.0 | 15.0 | 0.00 | 0.00 | 0.00 | 38 | 1015.1 |
| 20260505190005 | 81 | 250 | 2.0 | 7.0 | 0.00 | 0.00 | 0.00 | 38 | 1015.3 |
| 20260505184504 | 80 | 265 | 2.0 | 11.0 | 0.00 | 0.00 | 0.00 | 40 | 1015.3 |
| 20260505183012 | 80 | 147 | 1.0 | 7.0 | 0.00 | 0.00 | 0.00 | 38 | 1015.4 |
| 20260505181516 | 79 | 214 | 2.0 | 10.0 | 0.00 | 0.00 | 0.00 | 37 | 1015.7 |
| 20260505180019 | 80 | 299 | 2.0 | 11.0 | 0.00 | 0.00 | 0.00 | 40 | 1016.1 |
| 20260505174508 | 80 | 238 | 2.0 | 10.0 | 0.00 | 0.00 | 0.00 | 37 | 1016.4 |
| 20260505173025 | 79 | 248 | 2.0 | 10.0 | 0.00 | 0.00 | 0.00 | 41 | 1016.3 |
| 20260505171518 | 80 | 103 | 2.0 | 8.0 | 0.00 | 0.00 | 0.00 | 41 | 1016.3 |
| 20260505170025 | 78 | 211 | 2.0 | 8.0 | 0.00 | 0.00 | 0.00 | 38 | 1016.2 |
| 20260505164543 | 78 | 249 | 3.0 | 9.0 | 0.00 | 0.00 | 0.00 | 41 | 1016.3 |
| 20260505163012 | 77 | 248 | 2.0 | 9.0 | 0.00 | 0.00 | 0.00 | 39 | 1016.7 |
| 20260505161510 | 76 | 201 | 2.0 | 10.0 | 0.00 | 0.00 | 0.00 | 42 | 1016.6 |
| 20260505153031 | 74 | 263 | 1.0 | 8.0 | 0.00 | 0.00 | 0.00 | 54 | 1017.0 |
| 20260505151508 | 73 | 244 | 2.0 | 5.0 | 0.00 | 0.00 | 0.00 | 57 | 1017.3 |
| 20260505124518 | 56 | 217 | 2.0 | 7.0 | 0.00 | 0.00 | 0.00 | 92 | 1016.4 |
| 20260505123019 | 54 | 159 | 1.0 | 4.0 | 0.00 | 0.00 | 0.00 | 92 | 1016.4 |
| 20260505121522 | 53 | 152 | 0.0 | 3.0 | 0.00 | 0.00 | 0.00 | 92 | 1016.4 |
| 20260505120026 | 52 | 214 | 0.0 | 0.0 | 0.00 | 0.00 | 0.00 | 91 | 1016.3 |
| 20260505114533 | 52 | 214 | 0.0 | 0.0 | 0.00 | 0.00 | 0.00 | 90 | 1015.9 |
| 20260505113028 | 51 | 214 | 0.0 | 1.0 | 0.00 | 0.00 | 0.00 | 90 | 1015.9 |
| 20260505111520 | 51 | 214 | 0.0 | 2.0 | 0.00 | 0.00 | 0.00 | 89 | 1015.9 |
| 20260505101503 | 51 | 226 | 0.0 | 5.0 | 0.00 | 0.00 | 0.00 | 89 | 1015.6 |
| 20260505100004 | 51 | 200 | 1.0 | 5.0 | 0.00 | 0.00 | 0.00 | 89 | 1015.5 |
| 20260505094505 | 51 | 161 | 0.0 | 2.0 | 0.00 | 0.00 | 0.00 | 87 | 1015.5 |
| 20260505093008 | 51 | 219 | 0.0 | 1.0 | 0.00 | 0.00 | 0.00 | 85 | 1015.5 |
| 20260505091512 | 52 | 233 | 0.0 | 0.0 | 0.00 | 0.00 | 0.00 | 85 | 1015.4 |
| 20260505090003 | 52 | 233 | 0.0 | 1.0 | 0.00 | 0.00 | 0.00 | 84 | 1015.3 |
| 20260505084504 | 53 | 233 | 0.0 | 1.0 | 0.00 | 0.00 | 0.00 | 83 | 1015.3 |
| 20260505083006 | 53 | 233 | 0.0 | 1.0 | 0.00 | 0.00 | 0.00 | 82 | 1015.2 |
| 20260505081512 | 54 | 229 | 0.0 | 4.0 | 0.00 | 0.00 | 0.00 | 82 | 1015.2 |
| 20260505080017 | 54 | 228 | 0.0 | 7.0 | 0.00 | 0.00 | 0.00 | 82 | 1015.2 |
| 20260505074503 | 53 | 182 | 1.0 | 3.0 | 0.00 | 0.00 | 0.00 | 82 | 1015.0 |
| 20260505073005 | 53 | 205 | 1.0 | 5.0 | 0.00 | 0.00 | 0.00 | 83 | 1015.0 |
| 20260505071512 | 52 | 229 | 1.0 | 4.0 | 0.00 | 0.00 | 0.00 | 84 | 1015.0 |